CW6090 Weather Reports


Display with metric or nautical units.
time (UTC)temp
F
wind
direction
speed
MPH
gust
MPH
rain 1hr
in
rain 24hr
in
rain mn
in
humidity
%
barometer
mb
20260505114218 42 298 0.0 0.0 0.00 0.00 0.00 97 1016.6
20260505113715 42 297 0.0 0.0 0.00 0.00 0.00 97 1016.4
20260505113212 42 293 0.0 0.0 0.00 0.00 0.00 96 1016.3
20260505112708 42 293 0.0 0.0 0.00 0.00 0.00 95 1016.4
20260505112206 43 287 1.0 1.0 0.00 0.00 0.00 93 1016.4
20260505111705 44 303 0.0 1.0 0.00 0.00 0.00 95 1016.3
20260505111201 43 316 1.0 3.0 0.00 0.00 0.00 96 1016.6
20260505110657 42 330 2.0 2.0 0.00 0.00 0.00 97 1016.4
20260505110155 42 333 2.0 2.0 0.00 0.00 0.00 97 1016.4
20260505102130 41 307 1.0 1.0 0.00 0.00 0.00 96 1016.2
20260505101629 41 297 0.0 0.0 0.00 0.00 0.00 96 1016.2
20260505101125 42 308 1.0 1.0 0.00 0.00 0.00 96 1016.3
20260505100621 42 304 1.0 1.0 0.00 0.00 0.00 96 1016.1
20260505100118 42 306 0.0 1.0 0.00 0.00 0.00 95 1016.0
20260505095614 42 298 0.0 1.0 0.00 0.00 0.00 95 1016.1
20260505095111 43 284 1.0 2.0 0.00 0.00 0.00 94 1016.1
20260505094608 43 300 0.0 1.0 0.00 0.00 0.00 95 1016.0
20260505094104 43 303 0.0 2.0 0.00 0.00 0.00 95 1016.0
20260505093600 42 323 1.0 2.0 0.00 0.00 0.00 95 1015.8
20260505093058 43 298 0.0 0.0 0.00 0.00 0.00 94 1016.1
20260505092555 43 294 0.0 1.0 0.00 0.00 0.00 94 1016.0
20260505092053 43 307 1.0 1.0 0.00 0.00 0.00 94 1015.7
20260505091550 43 308 1.0 1.0 0.00 0.00 0.00 94 1016.1
20260505091048 43 298 1.0 1.0 0.00 0.00 0.00 93 1016.0
20260505090546 43 299 0.0 1.0 0.00 0.00 0.00 93 1016.0
20260505090043 44 301 0.0 1.0 0.00 0.00 0.00 93 1016.1
20260505085541 44 305 0.0 1.0 0.00 0.00 0.00 92 1016.0
20260505085039 44 293 1.0 2.0 0.00 0.00 0.00 92 1016.0
20260505084537 44 308 1.0 1.0 0.00 0.00 0.00 92 1016.1
20260505084035 44 303 0.0 1.0 0.00 0.00 0.00 92 1015.7
20260505083532 44 298 0.0 0.0 0.00 0.00 0.00 92 1015.8
20260505083028 44 296 0.0 0.0 0.00 0.00 0.00 90 1015.8
20260505082524 45 303 0.0 1.0 0.00 0.00 0.00 90 1015.7
20260505082021 45 314 1.0 1.0 0.00 0.00 0.00 89 1015.7
20260505081517 45 305 1.0 1.0 0.00 0.00 0.00 88 1015.8
20260505081014 46 303 0.0 1.0 0.00 0.00 0.00 88 1015.8
20260505080511 46 308 1.0 1.0 0.00 0.00 0.00 88 1015.7
20260505080007 46 318 1.0 2.0 0.00 0.00 0.00 86 1015.6
20260505075503 47 295 0.0 0.0 0.00 0.00 0.00 85 1015.5
20260505075000 47 301 0.0 1.0 0.00 0.00 0.00 84 1015.5
20260505074458 48 323 2.0 2.0 0.00 0.00 0.00 83 1015.4
20260505073955 47 348 3.0 3.0 0.00 0.00 0.00 85 1015.6
20260505073452 46 313 1.0 2.0 0.00 0.00 0.00 86 1015.5
20260505072949 46 305 0.0 1.0 0.00 0.00 0.00 86 1015.5
20260505072445 47 312 1.0 1.0 0.00 0.00 0.00 86 1015.1
20260505071942 47 307 1.0 1.0 0.00 0.00 0.00 84 1015.3
20260505071438 47 322 2.0 2.0 0.00 0.00 0.00 84 1015.1
20260505070936 47 313 1.0 1.0 0.00 0.00 0.00 84 1015.1
20260505070432 47 312 1.0 2.0 0.00 0.00 0.00 85 1015.2
20260505065928 47 321 1.0 2.0 0.00 0.00 0.00 84 1015.1
20260505065425 47 309 1.0 1.0 0.00 0.00 0.00 84 1015.1
20260505064921 48 306 1.0 1.0 0.00 0.00 0.00 82 1015.2
20260505064419 48 312 1.0 1.0 0.00 0.00 0.00 81 1015.0
20260505063917 48 310 1.0 1.0 0.00 0.00 0.00 82 1015.1
20260505063413 49 306 0.0 1.0 0.00 0.00 0.00 82 1015.1
20260505062909 49 306 0.0 1.0 0.00 0.00 0.00 81 1015.2
20260505062407 49 307 1.0 1.0 0.00 0.00 0.00 80 1015.2
20260505061903 50 305 0.0 0.0 0.00 0.00 0.00 79 1015.1
20260505061402 51 298 0.0 1.0 0.00 0.00 0.00 79 1015.0
20260505060859 51 303 0.0 0.0 0.00 0.00 0.00 79 1015.2
20260505060356 52 301 1.0 1.0 0.00 0.00 0.00 75 1015.1
20260505055852 52 313 1.0 1.0 0.00 0.00 0.00 74 1015.0
20260505055348 51 294 0.0 0.0 0.00 0.00 0.00 76 1015.2
20260505054845 53 300 0.0 0.0 0.00 0.00 0.00 73 1015.1
20260505054342 52 305 0.0 1.0 0.00 0.00 0.00 74 1015.2
20260505053841 52 307 1.0 1.0 0.00 0.00 0.00 75 1015.3
20260505053337 52 305 1.0 1.0 0.00 0.00 0.00 74 1015.3
20260505052834 52 307 1.0 1.0 0.00 0.00 0.00 74 1015.3
20260505052331 53 306 1.0 1.0 0.00 0.00 0.00 73 1015.3
20260505051828 53 291 0.0 2.0 0.00 0.00 0.00 72 1015.1
20260505051325 53 293 0.0 2.0 0.00 0.00 0.00 70 1015.1
20260505050823 54 302 0.0 2.0 0.00 0.00 0.00 70 1015.2
20260505050322 53 12 2.0 3.0 0.00 0.00 0.00 68 1015.2
20260505041751 53 244 2.0 2.0 0.00 0.00 0.00 66 1015.0
20260505041248 53 297 0.0 0.0 0.00 0.00 0.00 65 1015.0
20260505040746 53 305 1.0 1.0 0.00 0.00 0.00 67 1015.0
20260505040243 53 293 0.0 1.0 0.00 0.00 0.00 69 1015.0
20260505035740 53 305 1.0 2.0 0.00 0.00 0.00 66 1015.1
20260505035236 54 289 0.0 2.0 0.00 0.00 0.00 69 1015.3
20260505034733 54 329 2.0 2.0 0.00 0.00 0.00 65 1015.3
20260505034230 55 305 0.0 0.0 0.00 0.00 0.00 62 1015.2
20260505033726 55 307 1.0 1.0 0.00 0.00 0.00 65 1015.4
20260505033225 55 312 1.0 1.0 0.00 0.00 0.00 60 1015.5
20260505032722 56 286 1.0 1.0 0.00 0.00 0.00 63 1015.5
20260505032218 56 301 0.0 0.0 0.00 0.00 0.00 58 1015.4
20260505031716 58 293 0.0 1.0 0.00 0.00 0.00 57 1015.5
20260505031212 58 319 1.0 2.0 0.00 0.00 0.00 56 1015.5
20260505030709 58 303 0.0 0.0 0.00 0.00 0.00 55 1015.6
20260505030204 59 308 1.0 1.0 0.00 0.00 0.00 54 1015.5
20260505025700 59 281 1.0 1.0 0.00 0.00 0.00 57 1015.7
20260505025159 60 320 1.0 2.0 0.00 0.00 0.00 52 1015.8
20260505024657 60 269 1.0 1.0 0.00 0.00 0.00 50 1016.0
20260505024153 60 250 2.0 2.0 0.00 0.00 0.00 50 1016.0
20260505023651 60 289 0.0 2.0 0.00 0.00 0.00 50 1015.8
20260505023148 61 280 0.0 1.0 0.00 0.00 0.00 49 1015.7
20260505022646 60 312 1.0 2.0 0.00 0.00 0.00 50 1015.8
20260505022142 61 303 0.0 1.0 0.00 0.00 0.00 50 1015.8
20260505021639 60 285 0.0 1.0 0.00 0.00 0.00 50 1015.7
20260505021136 60 307 1.0 1.0 0.00 0.00 0.00 50 1016.0
20260505020631 60 313 1.0 1.0 0.00 0.00 0.00 51 1015.8
20260505020128 60 313 1.0 1.0 0.00 0.00 0.00 50 1015.8
20260505015625 61 289 0.0 1.0 0.00 0.00 0.00 49 1016.0
20260505015121 60 293 0.0 1.0 0.00 0.00 0.00 50 1016.0
20260505014618 60 301 1.0 2.0 0.00 0.00 0.00 51 1015.7
20260505014115 60 311 0.0 2.0 0.00 0.00 0.00 52 1015.7
20260505013613 61 300 0.0 1.0 0.00 0.00 0.00 50 1015.7
20260505013110 61 290 1.0 3.0 0.00 0.00 0.00 48 1015.5
20260505012608 62 297 0.0 2.0 0.00 0.00 0.00 49 1015.4
20260505012104 61 294 0.0 2.0 0.00 0.00 0.00 50 1015.5
20260505011600 62 285 1.0 3.0 0.00 0.00 0.00 51 1015.4
20260505011058 62 228 3.0 4.0 0.00 0.00 0.00 48 1015.4
20260505010553 62 264 2.0 3.0 0.00 0.00 0.00 49 1015.4
20260505010050 62 230 4.0 6.0 0.00 0.00 0.00 49 1015.1
20260505005546 61 304 0.0 2.0 0.00 0.00 0.00 52 1015.3
20260505005044 61 314 2.0 3.0 0.00 0.00 0.00 54 1015.2
20260505004540 62 315 1.0 2.0 0.00 0.00 0.00 53 1015.1
20260505004037 62 313 1.0 1.0 0.00 0.00 0.00 52 1014.8
20260505003535 63 296 0.0 1.0 0.00 0.00 0.00 51 1014.6
20260505003032 63 306 0.0 1.0 0.00 0.00 0.00 51 1014.5
20260505002532 63 274 1.0 3.0 0.00 0.00 0.00 51 1014.6
20260505002031 63 260 2.0 3.0 0.00 0.00 0.00 51 1014.5
20260505001528 64 201 2.0 3.0 0.00 0.00 0.00 49 1014.5
20260505001025 64 228 2.0 2.0 0.00 0.00 0.00 49 1014.6
20260505000522 64 232 2.0 2.0 0.00 0.00 0.00 48 1014.5
20260505000020 65 250 2.0 3.0 0.00 0.00 0.00 47 1014.5
20260504235517 65 248 2.0 3.0 0.00 0.00 0.00 47 1014.5
20260504235013 65 195 4.0 4.0 0.00 0.00 0.00 47 1014.4
20260504234510 65 260 2.0 6.0 0.00 0.00 0.00 47 1014.4
20260504234007 65 262 2.0 3.0 0.00 0.00 0.00 47 1014.6
20260504233502 65 262 2.0 3.0 0.00 0.00 0.00 48 1014.3
20260504233000 66 272 1.0 6.0 0.00 0.00 0.00 46 1014.6
20260504232456 66 200 3.0 4.0 0.00 0.00 0.00 46 1014.3
20260504231954 66 250 4.0 4.0 0.00 0.00 0.00 46 1014.3
20260504231450 66 195 4.0 4.0 0.00 0.00 0.00 45 1014.3
20260504230947 67 207 3.0 4.0 0.00 0.00 0.00 46 1014.4
20260504230443 67 230 1.0 7.0 0.00 0.00 0.00 46 1014.3
20260504225943 67 194 2.0 7.0 0.00 0.00 0.00 46 1014.4
20260504225439 67 277 2.0 3.0 0.00 0.00 0.00 47 1014.3
20260504224936 67 200 3.0 4.0 0.00 0.00 0.00 46 1014.5
20260504224432 67 262 2.0 3.0 0.00 0.00 0.00 47 1014.4
20260504223930 67 212 3.0 4.0 0.00 0.00 0.00 46 1014.4
20260504223425 67 285 2.0 6.0 0.00 0.00 0.00 47 1014.5
20260504222921 68 237 4.0 8.0 0.00 0.00 0.00 46 1014.3
20260504222419 68 239 2.0 3.0 0.00 0.00 0.00 47 1014.4
20260504221917 69 248 3.0 4.0 0.00 0.00 0.00 47 1014.4
20260504221413 68 225 3.0 7.0 0.00 0.00 0.00 47 1014.5
20260504220910 69 245 3.0 4.0 0.00 0.00 0.00 46 1014.3
20260504220407 69 198 3.0 4.0 0.00 0.00 0.00 47 1014.3
20260504215904 70 191 4.0 7.0 0.00 0.00 0.00 44 1014.3
20260504215401 69 234 2.0 4.0 0.00 0.00 0.00 45 1014.4
20260504214857 71 180 5.0 8.0 0.00 0.00 0.00 43 1014.5
20260504214354 71 212 4.0 4.0 0.00 0.00 0.00 46 1014.3
20260504213850 73 217 3.0 3.0 0.00 0.00 0.00 44 1014.3
20260504213346 74 274 1.0 2.0 0.00 0.00 0.00 43 1014.3
20260504212844 74 294 1.0 3.0 0.00 0.00 0.00 44 1014.6
20260504212340 73 272 1.0 3.0 0.00 0.00 0.00 43 1014.3
20260504211838 73 198 3.0 4.0 0.00 0.00 0.00 45 1014.6
20260504211333 73 311 1.0 2.0 0.00 0.00 0.00 42 1014.5
20260504210831 72 289 1.0 3.0 0.00 0.00 0.00 42 1014.6
20260504210328 73 334 4.0 4.0 0.00 0.00 0.00 43 1014.4
20260504205825 73 111 6.0 8.0 0.00 0.00 0.00 41 1014.4
20260504205323 73 302 2.0 7.0 0.00 0.00 0.00 42 1014.2
20260504204821 72 308 1.0 2.0 0.00 0.00 0.00 44 1014.4
20260504204319 72 276 2.0 2.0 0.00 0.00 0.00 48 1014.6
20260504203818 73 309 1.0 6.0 0.00 0.00 0.00 43 1014.8
20260504203315 71 292 2.0 4.0 0.00 0.00 0.00 44 1014.9
20260504202810 71 282 2.0 6.0 0.00 0.00 0.00 45 1014.8
20260504202308 70 188 3.0 6.0 0.00 0.00 0.00 46 1014.9
20260504201804 71 257 2.0 6.0 0.00 0.00 0.00 46 1014.8
20260504201302 71 295 2.0 4.0 0.00 0.00 0.00 45 1015.1
20260504200759 72 331 4.0 6.0 0.00 0.00 0.00 45 1015.1
20260504200255 70 292 1.0 4.0 0.00 0.00 0.00 48 1015.1
20260504195752 70 232 3.0 4.0 0.00 0.00 0.00 52 1015.2
20260504195247 70 251 3.0 4.0 0.00 0.00 0.00 46 1015.3
20260504194745 69 47 4.0 7.0 0.00 0.00 0.00 49 1015.3
20260504194241 69 285 1.0 7.0 0.00 0.00 0.00 48 1015.6
20260504193737 70 342 3.0 6.0 0.00 0.00 0.00 49 1015.6
20260504193235 69 348 3.0 4.0 0.00 0.00 0.00 49 1015.7
20260504192733 68 337 2.0 6.0 0.00 0.00 0.00 49 1015.7
20260504192231 70 306 2.0 4.0 0.00 0.00 0.00 49 1016.0
20260504191729 69 271 1.0 4.0 0.00 0.00 0.00 50 1015.8
20260504191226 68 185 5.0 6.0 0.00 0.00 0.00 50 1016.1
20260504190721 69 229 2.0 4.0 0.00 0.00 0.00 53 1016.3
20260504190218 69 240 3.0 6.0 0.00 0.00 0.00 53 1016.1
20260504185714 68 307 1.0 3.0 0.00 0.00 0.00 52 1016.3
20260504185211 67 285 1.0 2.0 0.00 0.00 0.00 49 1016.0
20260504184707 68 319 3.0 4.0 0.00 0.00 0.00 49 1016.3
20260504184203 68 271 3.0 4.0 0.00 0.00 0.00 51 1016.5
20260504183659 69 215 6.0 8.0 0.00 0.00 0.00 51 1016.3
20260504183156 67 292 0.0 2.0 0.00 0.00 0.00 53 1016.6
20260504182654 66 308 1.0 4.0 0.00 0.00 0.00 51 1016.5
20260504182151 67 269 2.0 4.0 0.00 0.00 0.00 52 1016.5
20260504181649 65 293 1.0 6.0 0.00 0.00 0.00 54 1016.6
20260504181146 66 279 0.0 3.0 0.00 0.00 0.00 50 1016.7
20260504180645 66 326 3.0 4.0 0.00 0.00 0.00 51 1016.5
20260504180143 66 332 2.0 6.0 0.00 0.00 0.00 52 1016.5
20260504175640 67 203 4.0 7.0 0.00 0.00 0.00 52 1016.6
20260504175137 66 241 4.0 6.0 0.00 0.00 0.00 51 1016.4
20260504174636 66 275 2.0 3.0 0.00 0.00 0.00 52 1016.6
20260504174131 67 320 3.0 4.0 0.00 0.00 0.00 51 1016.7
20260504173629 67 260 2.0 4.0 0.00 0.00 0.00 52 1016.7
20260504173126 66 222 3.0 6.0 0.00 0.00 0.00 53 1016.7
20260504172622 66 274 1.0 2.0 0.00 0.00 0.00 52 1016.7
20260504172119 65 234 3.0 3.0 0.00 0.00 0.00 54 1016.6
20260504171615 65 294 0.0 3.0 0.00 0.00 0.00 51 1016.8
20260504171113 64 302 2.0 3.0 0.00 0.00 0.00 53 1016.7
20260504170609 64 352 3.0 6.0 0.00 0.00 0.00 51 1016.6
20260504170107 65 282 3.0 4.0 0.00 0.00 0.00 51 1017.0
20260504150952 54 282 1.0 2.0 0.00 0.00 0.00 78 1018.0
20260504150449 55 310 2.0 4.0 0.00 0.00 0.00 78 1018.5
20260504140916 57 282 1.0 3.0 0.00 0.00 0.00 60 1018.6
20260504140412 57 298 1.0 3.0 0.00 0.00 0.00 57 1018.4
20260504130337 47 275 1.0 1.0 0.00 0.00 0.00 72 1017.8
20260504120300 38 307 1.0 1.0 0.00 0.00 0.00 90 1017.5